STARLINK-30617

Satellite information

Favourite Embed

Satellite Type and Status

PAYLOADIN ORBIT

Key statistics

Satellite STARLINK-30617 at a glance.

Uptime

747

Days in orbit

Revolutions

≈ 15.3

Per day

Orbit

LEO

Low Earth Orbit

Inclination

53.2

Latest

Satellite identification and parameters

Extended collection of information and parameters for STARLINK-30617.

Object identification

Identified? True

Debris? False

Object name: STARLINK-30617

International designator: 2023-161H

Object number (NORAD): 58104

Object ID (CCSDS): 58104

Country: UNITED STATES OF AMERICA (US)

Current information (Y/N): Y

RCS size: LARGE

Orbital parameters

Period: 94.105 minutes

Inclination: 53.1615 deg

SMA: 6853.316 km

Apoapsis: 476.202 km

Periapsis: 474.16 km

RAAN: 21.885 deg

Eccentricy: 0.00014893

Argument of periapsis: 81.6814 deg

Mean anomaly: 278.4356 deg

Mean motion: 15.3021211 rev/day

Mean motion (dot): 0.00000212 rev/day2

B* drag term: 0.000019289773 1/REarth

Two-line elements (TLE)

Creation date: Nov. 6, 2025, 3:23 a.m.

Reference frame: TEME

Reference center: EARTH

Epoch: Nov. 5, 2025, 3:13 p.m. UTC

TLE line 0: 0 STARLINK-30617

TLE line 1: 1 58104U 23161H 25309.63452124 .00000212 00000-0 19290-4 0 9997

TLE line 2: 2 58104 53.1615 21.8850 0001489 81.6814 278.4356 15.30212110115429

Live tracking on map

Real-time ground track for satellite STARLINK-30617.

In-orbit conjunctions

There are no conjunctions computed for STARLINK-30617, at the moment. Check back to stay up to date, as we update our databases every day.

Go to all conjunctions

Associated space launch

A batch of 21 satellites for the Starlink mega-constellation - SpaceX's project for space-based Internet communication system.

STARLINK-30617 was lifted into orbit during the mission ‘Falcon 9 Block 5 | Starlink Group 7-5’, on board a Falcon 9 space rocket.

The launch took place on Oct. 21, 2023, 8:23 a.m. from Space Launch Complex 4E.

For more information about the launch, click the button.

Launch to space Falcon 9 Block 5 | Starlink Group 7-5
Falcon 9 Block 5 | Starlink Group 7-5

Agency: SpaceX

Status: Launch Successful

Launch date: Oct. 21, 2023, 8:23 a.m. UTC

Rocket: Falcon 9

Launch pad: Space Launch Complex 4E

Location: Vandenberg SFB, CA, USA

...

Latest news about this satellite

News about space launch
Launch Roundup: SpaceX to launch three Starlink missions; India to test crew abort system

Another busy period in spaceflight is underway with three Falcon 9 rockets with Starlink payloads and the first test flight of India’s Gaganyaan crew-capable spacecraft. Starlink 6-23 and 6-24 are set to fly from Space Launch Complex (SLC) 40 at Cape Cana...


Newsletter sign-up

Weekly statistics, charts and insights to help you stay on top of the space industry.